Location: Newark
(39.6867°N, 100.6772°W)
Time: 22:33:33
(UTC+00:00)

A-11 Canister half - Visible Passes

Search period start: 14 October 2019 00:00
Search period end: 24 October 2019 00:00
Orbit: 1514 x 1686 km, 47.2° (Epoch: 13 October)

Date Brightness Start Highest point End Pass type
(mag) Time Alt. Az. Time Alt. Az. Time Alt. Az.
14 Oct 10.8 08:02:33 18° E 08:02:33 18° E 08:05:45 10° E visible
14 Oct 9.0 10:00:45 61° SSW 10:02:32 73° SE 10:12:03 10° ENE visible
14 Oct 9.2 11:58:59 13° W 12:07:52 61° NNW 12:17:11 10° ENE visible
15 Oct 11.0 07:41:07 14° E 07:41:07 14° E 07:42:35 10° E visible
15 Oct 9.0 09:39:20 69° SSE 09:39:37 69° SE 09:49:07 10° ENE visible
15 Oct 9.2 11:37:33 19° W 11:44:53 62° NNW 11:54:15 10° ENE visible
16 Oct 9.2 09:17:52 62° ESE 09:17:52 62° ESE 09:26:12 10° ENE visible
16 Oct 9.2 11:16:05 27° W 11:21:54 64° NNW 11:31:18 10° ENE visible
17 Oct 9.6 08:56:22 49° E 08:56:22 49° E 09:03:16 10° ENE visible
17 Oct 9.1 10:54:34 37° W 10:58:55 65° NNW 11:08:23 10° ENE visible
18 Oct 10.0 08:34:50 38° E 08:34:50 38° E 08:40:20 10° ENE visible
18 Oct 9.1 10:33:02 48° W 10:35:56 67° NNW 10:45:27 10° ENE visible
19 Oct 10.4 08:13:15 29° ENE 08:13:15 29° ENE 08:17:23 10° ENE visible
19 Oct 9.0 10:11:28 62° WNW 10:12:57 69° NNW 10:22:31 10° ENE visible
19 Oct 9.4 12:09:40 10° WNW 12:19:05 55° N 12:28:17 10° E visible
20 Oct 10.7 07:51:39 21° ENE 07:51:39 21° ENE 07:54:26 10° ENE visible
20 Oct 9.0 09:49:52 71° NNW 09:49:59 71° NNW 09:59:35 10° ENE visible
20 Oct 9.4 11:48:04 16° WNW 11:56:05 55° N 12:05:18 10° E visible
21 Oct 11.0 07:30:03 15° ENE 07:30:03 15° ENE 07:31:28 10° ENE visible
21 Oct 9.2 09:28:15 67° NNE 09:28:15 67° NNE 09:36:40 10° ENE visible
21 Oct 9.4 11:26:27 22° WNW 11:33:05 55° N 11:42:20 10° E visible
22 Oct 11.2 07:08:26 10° ENE 07:08:26 10° ENE 07:08:30 10° ENE visible
22 Oct 9.5 09:06:38 54° NE 09:06:38 54° NE 09:13:44 10° ENE visible
22 Oct 9.4 11:04:50 29° WNW 11:10:05 55° N 11:19:21 10° ENE visible
23 Oct 9.9 08:45:00 42° NE 08:45:00 42° NE 08:50:49 10° ENE visible
23 Oct 9.3 10:43:12 37° WNW 10:47:04 55° N 10:56:23 10° ENE visible
